Location: *
(46.4833°N, 7.6667°E)
Time: 20:47:40
(UTC+00:00)

Cosmos 1656 Rocket - Pass Details

Date: 27 February 2020
Orbit: 794 x 848 km, 71.1° (Epoch: 03 April)

Event Time Altitude Azimuth Distance (km) Brightness Sun altitude
Rises 18:16:16 0° 211° (SSW) 3,322 7.3 -11.9°
Reaches altitude 10° 18:18:40 10° 214° (SW) 2,402 6.5 -12.3°
Maximum altitude 18:24:10 71° 298° (WNW) 874 4.0 -13.3°
Drops below altitude 10° 18:29:47 10° 23° (NNE) 2,455 5.9 -14.2°
Sets 18:32:16 0° 26° (NNE) 3,400 6.6 -14.7°
